TimeMDT,TemperatureF,Dew PointF,Humidity,Sea Level PressureIn,VisibilityMPH,Wind Direction,Wind SpeedMPH,Gust SpeedMPH,PrecipitationIn,Events,Conditions,WindDirDegrees,DateUTC
12:53 AM,34.0,27.0,75,30.11,10.0,SSW,4.6,-,N/A,,Clear,200,2013-03-30 06:53:00
1:53 AM,32.0,26.1,79,30.10,10.0,Variable,5.8,-,N/A,,Scattered Clouds,0,2013-03-30 07:53:00
2:53 AM,32.0,26.1,79,30.09,10.0,SSW,5.8,-,N/A,,Scattered Clouds,200,2013-03-30 08:53:00
3:53 AM,28.0,23.0,81,30.12,10.0,SSW,3.5,-,N/A,,Partly Cloudy,200,2013-03-30 09:53:00
4:53 AM,28.9,24.1,82,30.12,10.0,South,4.6,-,N/A,,Scattered Clouds,180,2013-03-30 10:53:00
5:53 AM,28.0,23.0,81,30.12,10.0,South,4.6,-,N/A,,Partly Cloudy,190,2013-03-30 11:53:00
6:53 AM,28.0,23.0,81,30.12,10.0,SSE,4.6,-,N/A,,Scattered Clouds,160,2013-03-30 12:53:00
7:53 AM,28.9,23.0,78,30.14,10.0,SSE,3.5,-,N/A,,Clear,150,2013-03-30 13:53:00
8:53 AM,37.9,26.1,62,30.09,10.0,Calm,Calm,-,N/A,,Clear,0,2013-03-30 14:53:00
9:53 AM,44.1,26.1,49,30.05,10.0,NNW,4.6,-,N/A,,Clear,330,2013-03-30 15:53:00
10:53 AM,48.0,26.1,42,30.03,10.0,North,10.4,-,N/A,,Clear,10,2013-03-30 16:53:00
11:53 AM,48.9,25.0,39,30.04,10.0,NW,12.7,19.6,N/A,,Clear,320,2013-03-30 17:53:00
12:53 PM,48.9,21.9,35,30.03,10.0,NW,12.7,21.9,N/A,,Partly Cloudy,320,2013-03-30 18:53:00
1:53 PM,51.1,21.0,31,30.02,10.0,NNW,13.8,20.7,N/A,,Mostly Cloudy,340,2013-03-30 19:53:00
2:53 PM,52.0,19.9,28,29.99,10.0,NNW,9.2,17.3,N/A,,Mostly Cloudy,330,2013-03-30 20:53:00
3:53 PM,52.0,19.0,27,30.00,10.0,NNW,12.7,-,N/A,,Mostly Cloudy,330,2013-03-30 21:53:00
4:53 PM,53.1,19.0,26,29.98,10.0,North,13.8,23.0,N/A,,Scattered Clouds,350,2013-03-30 22:53:00
5:53 PM,52.0,21.0,30,29.99,10.0,NNW,10.4,-,N/A,,Scattered Clouds,340,2013-03-30 23:53:00
6:53 PM,48.0,19.0,32,30.02,10.0,NW,12.7,-,N/A,,Partly Cloudy,320,2013-03-31 00:53:00
7:53 PM,46.0,19.0,34,30.04,10.0,West,4.6,-,N/A,,Partly Cloudy,260,2013-03-31 01:53:00
8:53 PM,44.1,21.9,42,30.05,10.0,NNW,5.8,-,N/A,,Overcast,340,2013-03-31 02:53:00
9:53 PM,35.1,23.0,61,30.07,10.0,Calm,Calm,-,N/A,,Scattered Clouds,0,2013-03-31 03:53:00
10:53 PM,34.0,23.0,64,30.08,10.0,SSW,5.8,-,N/A,,Clear,210,2013-03-31 04:53:00
11:53 PM,34.0,23.0,64,30.05,10.0,SSW,6.9,-,N/A,,Clear,200,2013-03-31 05:53:00